Preview of NWS' New Version of Forecast
This preview is not operational and should not be used for support decisions.

Regional Weather Roundup (RWR)

Issued by National Weather Service (NWS)

                            
000
ASUS43 KTOP 240608
RWRKS 

WEATHER ROUNDUP FOR KANSAS
NATIONAL WEATHER SERVICE GOODLAND KS
100 AM CDT MON JUN 24 2019

NOTE:  "FAIR" INDICATES FEW OR NO CLOUDS BELOW 12,000 FEET WITH NO
SIGNIFICANT WEATHER AND/OR OBSTRUCTIONS TO VISIBILITY.

KSZ001>006-013>018-027>032-041>047-240700-
NORTHWEST KANSAS
  
CITY           SKY/WX    TMP DP  RH WIND       PRES   REMARKS
GOODLAND       CLEAR     48  47  96 NW6       29.99R                  
6HR MIN TEMP:  48; 6HR MAX TEMP:  61;                                

HAYS           CLEAR     55  53  93 W6        29.93R                  
HILL CITY      CLEAR     54  51  90 W3        29.92F                  
6HR MIN TEMP:  54; 6HR MAX TEMP:  74;                                

RUSSELL        CLEAR     57  53  86 NW9       29.90R                  
6HR MIN TEMP:  57; 6HR MAX TEMP:  74;                                

$$

KSZ061>065-074>080-084>089-240700-
SOUTHWEST KANSAS
  
CITY           SKY/WX    TMP DP  RH WIND       PRES   REMARKS
DODGE CITY     CLEAR     56  51  84 NW10      29.95S                  
6HR MIN TEMP:  56; 6HR MAX TEMP:  69;                                

ELKHART        CLEAR     56  53  91 CALM      30.02R                  
GARDEN CITY    CLEAR     51  48  89 NW6       29.98R                  
6HR MIN TEMP:  51; 6HR MAX TEMP:  72;                                

GREAT BEND     CLEAR     59  56  89 NW9       29.92R                  
LIBERAL        CLEAR     56  51  84 CALM      29.99S                  
PRATT          CLEAR     62  54  73 NW13      29.91R                  
6HR MIN TEMP:  62; 6HR MAX TEMP:  80;                                

$$

KSZ066>073-081>083-090>101-240700-
SOUTHEAST KANSAS
  
CITY           SKY/WX    TMP DP  RH WIND       PRES   REMARKS
CHANUTE        PTCLDY    69  66  90 S7        29.80F                  
6HR MIN TEMP:  68; 6HR MAX TEMP:  74;                                

COFFEYVILLE    CLEAR     69  67  93 S8        29.79F                  
6HR MIN TEMP:  69; 6HR MAX TEMP:  72;                                

HUTCHINSON     CLEAR     64  59  83 MISG      29.87R                  
6HR MIN TEMP:  64; 6HR MAX TEMP:  80;                                

MEDICINE LODGE   N/A     63  58  83 NW7       29.87S                  
NEWTON         CLEAR     66  63  90 NW8       29.85S                  
PARSONS        CLEAR     68  68 100 S6        29.80F                  
6HR MIN TEMP:  68; 6HR MAX TEMP:  72;                                

WICHITA INTL   PTCLDY    69  61  75 NW7       29.83F                  
6HR MIN TEMP:  69; 6HR MAX TEMP:  81;                                

WICHITA JABRA  CLEAR     67  61  81 NW6       29.83F                  
6HR MIN TEMP:  67; 6HR MAX TEMP:  78;                                

WICHITA MCCONL CLEAR     69  60  73 NW7       29.83F                  
WINFIELD       CLEAR     69  66  90 S7        29.83F                  
6HR MIN TEMP:  69; 6HR MAX TEMP:  78;                                

$$

KSZ007>012-019>026-033>040-048>060-102>105-240700-
NORTHEAST KANSAS
  
CITY           SKY/WX    TMP DP  RH WIND       PRES   REMARKS
CONCORDIA      PTCLDY    59  54  83 W8        29.86R                  
6HR MIN TEMP:  59; 6HR MAX TEMP:  74;                                

EMPORIA        CLEAR     67  64  90 NW3       29.81R                  
6HR MIN TEMP:  66; 6HR MAX TEMP:  76;                                

LAWRENCE       CLEAR     67  65  93 NW3       29.77S                  
6HR MIN TEMP:  66; 6HR MAX TEMP:  77;                                

MANHATTAN      CLEAR     62  59  90 CALM      29.81S                  
6HR MIN TEMP:  62; 6HR MAX TEMP:  79;                                

MARYSVILLE     CLOUDY    63  59  88 W6        29.81R                  
OLATHE IND     PTCLDY    68  65  90 SW8       29.78F                  
6HR MIN TEMP:  67; 6HR MAX TEMP:  74;                                

OLATHE EXE     PTCLDY    67  66  97 S6        29.77F                  
6HR MIN TEMP:  66; 6HR MAX TEMP:  72;                                

SALINA         PTCLDY    60  56  86 NW9       29.88R                  
6HR MIN TEMP:  60; 6HR MAX TEMP:  79; 6HR PCP:  0.01;                

TOPEKA BILLARD CLEAR     67  63  87 W5        29.78R                  
6HR MIN TEMP:  67; 6HR MAX TEMP:  80;                                

TOPEKA FORBES  CLEAR     67  63  87 NW8       29.79R                  
6HR MIN TEMP:  66; 6HR MAX TEMP:  79;                                

$$